[[{"header":{"parameterUnit":"m.s-1","parameterCategory":1,"la1":30.2991,"la2":30.254,"lo1":-89.0895,"lo2":-89.0444,"dy":0.0017,"dx":0.0017,"nx":28,"ny":28,"refTime":"2024-10-08T09:00:00:Z","depth":0,"parameterNumber":2,"parameterNumberName":"U-component_of_WINDS"},"data":[0,0,0,0,0,0,0,0,0,0,0,0,0,0,0,0,0,0,0,0,0,0,0,0,0,0,0,0,0,0,0,0,0,0,0,0,0,0,0,0,0,0,0,0,0,0,0,0,0,0,0,0,0,0,0,0,0,0,-1.8558,-1.8559,0,-1.8586,-1.8586,-1.8587,-1.86,-1.86,-1.86,-1.86,-1.863,-1.8631,-1.8631,0,0,0,0,0,0,0,0,0,0,0,0,0,-1.8518,-1.8519,-1.8558,-1.8559,-1.8559,-1.8586,-1.8586,-1.8587,-1.86,-1.86,-1.86,-1.86,-1.8629,-1.863,-1.8631,0,0,0,0,0,0,0,0,0,0,0,0,0,-1.854,-1.8519,-1.8558,-1.8569,-1.857,-1.8586,-1.8586,-1.8587,-1.86,-1.86,-1.86,-1.86,-1.8629,-1.863,-1.8632,-1.8639,0,0,-1.8635,-1.8636,0,0,0,0,0,0,0,0,-1.8539,-1.8541,-1.8567,-1.8568,-1.857,-1.859,-1.8583,-1.8605,-1.86,-1.8589,-1.86,-1.86,-1.8616,-1.8619,-1.8624,-1.8641,-1.8642,-1.8635,-1.8636,-1.8637,-1.8637,0,0,0,0,0,0,0,-1.8537,-1.854,-1.8569,-1.8567,-1.8569,-1.8573,-1.8576,-1.8587,-1.8602,-1.859,-1.8591,-1.8594,-1.8617,-1.8623,-1.8625,-1.8642,-1.8635,-1.8636,-1.8637,-1.8638,-1.8668,-1.8668,0,0,0,0,0,0,-1.8534,-1.8539,-1.8568,-1.857,-1.8554,-1.8573,-1.8577,-1.8583,-1.8602,-1.8605,-1.8594,-1.8594,-1.8621,-1.8623,-1.8626,-1.8637,-1.8637,-1.8638,-1.8638,-1.8668,-1.8668,-1.8668,0,0,0,0,0,0,-1.8533,-1.8536,-1.8567,-1.8555,-1.8559,-1.8574,-1.8581,-1.8584,-1.8589,-1.8605,-1.8608,-1.8597,-1.8621,-1.8624,-1.8636,-1.8638,-1.8638,-1.8639,-1.8668,-1.8668,-1.8668,-1.8658,0,0,0,0,0,0,-1.8532,-1.8536,-1.8538,-1.8555,-1.856,-1.8576,-1.8581,-1.8584,-1.8591,-1.8592,-1.8609,-1.8612,-1.8621,-1.8634,-1.8637,-1.8639,-1.864,-1.8668,-1.8668,-1.8668,-1.8658,-1.8657,-1.8657,0,0,0,0,0,-1.853,-1.8535,-1.8539,-1.8542,-1.8563,-1.8576,-1.8579,-1.859,-1.8591,-1.8594,-1.8605,-1.8611,-1.8637,-1.8635,-1.8639,-1.8641,-1.8667,-1.8668,-1.8668,-1.8658,-1.8658,-1.8657,0,0,0,0,0,0,-1.8518,-1.8537,-1.8541,-1.8551,-1.8562,-1.8579,-1.8583,-1.8589,-1.86,-1.86,-1.8613,-1.8617,-1.8627,-1.8636,-1.8633,-1.865,-1.8653,-1.8654,-1.8644,-1.8644,-1.8644,-1.8641,-1.8641,0,0,0,0,0,-1.8517,-1.8526,-1.8542,-1.8549,-1.8554,-1.8567,-1.8574,-1.8581,-1.8593,-1.8597,-1.8609,-1.862,-1.8631,-1.8638,-1.8649,-1.8659,-1.8664,-1.8663,-1.8663,-1.8662,-1.8663,-1.867,-1.867,-1.8668,-1.8668,-1.8668,0,0,-1.8514,-1.8525,-1.853,-1.8547,-1.8556,-1.8565,-1.8571,-1.858,-1.8588,-1.8599,-1.861,-1.8619,-1.8633,-1.8644,-1.865,-1.8652,-1.8664,-1.8663,-1.8662,-1.8663,-1.867,-1.867,-1.867,-1.8669,-1.8669,-1.8669,0,0,-1.8514,-1.8523,-1.853,-1.8539,-1.8553,-1.8562,-1.8564,-1.8579,-1.8585,-1.8597,-1.8606,-1.8615,-1.8634,-1.8643,-1.8651,-1.8655,-1.8661,-1.8658,-1.8655,-1.8662,-1.8662,-1.8662,-1.8664,-1.8664,-1.8658,-1.8658,-1.8658,0,-1.8508,-1.8522,-1.8533,-1.8542,-1.8549,-1.856,-1.8567,-1.8576,-1.8593,-1.8598,-1.8599,-1.8623,-1.8633,-1.8647,-1.8648,-1.8654,-1.8656,-1.8656,-1.8661,-1.8661,-1.8662,-1.8663,-1.8664,-1.8658,-1.8658,-1.8658,-1.8658,0,-1.8515,-1.8524,-1.8529,-1.8544,-1.8552,-1.856,-1.8573,-1.858,-1.8587,-1.8596,-1.8608,-1.8621,-1.8635,-1.8639,-1.8645,-1.8654,-1.8654,-1.8658,-1.8661,-1.8661,-1.8663,-1.8664,-1.8657,-1.8657,-1.8658,-1.8658,0,0,-1.8507,-1.8529,-1.8531,-1.8538,-1.8554,-1.8562,-1.8571,-1.8584,-1.859,-1.8602,-1.861,-1.8625,-1.8629,-1.8638,-1.8646,-1.8652,-1.8654,-1.8655,-1.8656,-1.8654,-1.8665,-1.8661,-1.8662,-1.8659,-1.8659,-1.8659,-1.8664,0,-1.8509,-1.8525,-1.8536,-1.8548,-1.8557,-1.8567,-1.8575,-1.8586,-1.8595,-1.8605,-1.8615,-1.8626,-1.863,-1.8635,-1.8641,-1.8652,-1.8656,-1.8652,-1.8667,-1.8667,-1.8663,-1.8663,-1.8659,-1.8663,-1.8664,-1.8664,-1.8665,0,-1.8513,-1.8524,-1.8537,-1.8552,-1.8557,-1.8563,-1.8577,-1.8585,-1.8599,-1.8605,-1.8614,-1.8623,-1.8634,-1.8636,-1.8651,-1.8648,-1.8655,-1.8662,-1.8662,-1.8664,-1.8666,-1.8664,-1.8664,-1.8665,-1.8666,-1.8666,-1.8666,0,-1.8506,-1.8524,-1.8534,-1.854,-1.8559,-1.8563,-1.8571,-1.8585,-1.8592,-1.8604,-1.8609,-1.8622,-1.8629,-1.864,-1.8652,-1.8652,-1.8666,-1.867,-1.8672,-1.8672,-1.8675,-1.8674,-1.8675,-1.8679,-1.8679,-1.8679,-1.8679,0,-1.8507,-1.8514,-1.8531,-1.8538,-1.8547,-1.8559,-1.8568,-1.8577,-1.8588,-1.8597,-1.8607,-1.8615,-1.8631,-1.8641,-1.8651,-1.8662,-1.8666,-1.8672,-1.8674,-1.867,-1.867,-1.8675,-1.8675,-1.8679,-1.8679,-1.8679,-1.8679,0,-1.8501,-1.8512,-1.8524,-1.8541,-1.8545,-1.8551,-1.8565,-1.8572,-1.8582,-1.8593,-1.8596,-1.8611,-1.8624,-1.8637,-1.8654,-1.8661,-1.8672,-1.8676,-1.8668,-1.8669,-1.8671,-1.8671,-1.8675,-1.8677,-1.868,-1.868,-1.868,0,-1.85,-1.8506,-1.8523,-1.8529,-1.8537,-1.8547,-1.8555,-1.8568,-1.8575,-1.8591,-1.8596,-1.8609,-1.8621,-1.8641,-1.8654,-1.8667,-1.8671,-1.8672,-1.8673,-1.867,-1.8671,-1.8671,-1.8672,-1.8671,-1.8671,-1.8671,-1.8671,0,-1.8498,-1.8504,-1.8514,-1.8526,-1.8535,-1.8545,-1.8556,-1.8561,-1.8576,-1.8584,-1.8597,-1.8606,-1.8623,-1.8637,-1.8652,-1.8661,-1.8669,-1.8671,-1.8672,-1.8668,-1.8663,-1.8666,-1.8666,-1.867,-1.8671,-1.8671,-1.8671,-1.8671,-1.8495,-1.8501,-1.8514,-1.8525,-1.8534,-1.8544,-1.8552,-1.8562,-1.8573,-1.8588,-1.8595,-1.8608,-1.8622,-1.8643,-1.8652,-1.8663,-1.8665,-1.8667,-1.8668,-1.8668,-1.8667,-1.8662,-1.8666,-1.8666,-1.8666,-1.8666,-1.8666,0,-1.8493,-1.8502,-1.8512,-1.8527,-1.8536,-1.8542,-1.8555,-1.8562,-1.8573,-1.8585,-1.8596,-1.8611,-1.8624,-1.8639,-1.8653,-1.8659,-1.8663,-1.8662,-1.8662,-1.8664,-1.8664,-1.8662,-1.8659,-1.8659,-1.8659,-1.8659,-1.8659,-1.8659,-1.8493,-1.8504,-1.8511,-1.8526,-1.8536,-1.8548,-1.8554,-1.8564,-1.8574,-1.859,-1.8601,-1.861,-1.8623,-1.8639,-1.8651,-1.8655,-1.866,-1.8659,-1.8664,-1.8664,-1.8664,-1.8665,-1.8662,-1.866,-1.866,-1.8663,-1.8663,-1.8663]},{"header":{"parameterUnit":"m.s-1","parameterCategory":1,"la1":30.2991,"la2":30.254,"lo1":-89.0895,"lo2":-89.0444,"dy":0.0017,"dx":0.0017,"nx":28,"ny":28,"refTime":"2024-10-08T09:00:00:Z","depth":0,"parameterNumber":3,"parameterNumberName":"V-component_of_WINDS"},"data":[0,0,0,0,0,0,0,0,0,0,0,0,0,0,0,0,0,0,0,0,0,0,0,0,0,0,0,0,0,0,0,0,0,0,0,0,0,0,0,0,0,0,0,0,0,0,0,0,0,0,0,0,0,0,0,0,0,0,-3.4588,-3.4588,0,-3.4591,-3.4591,-3.4591,-3.4631,-3.4632,-3.4633,-3.4634,-3.4634,-3.4633,-3.4632,0,0,0,0,0,0,0,0,0,0,0,0,0,-3.4618,-3.4617,-3.4588,-3.4588,-3.4588,-3.4591,-3.4591,-3.4591,-3.4631,-3.4632,-3.4633,-3.4634,-3.4634,-3.4633,-3.4632,0,0,0,0,0,0,0,0,0,0,0,0,0,-3.4611,-3.4617,-3.4588,-3.4609,-3.461,-3.4591,-3.4591,-3.4591,-3.4631,-3.4632,-3.4634,-3.4635,-3.4635,-3.4633,-3.4632,-3.4592,0,0,-3.4627,-3.4627,0,0,0,0,0,0,0,0,-3.4611,-3.461,-3.4606,-3.4607,-3.4609,-3.4612,-3.4601,-3.4591,-3.463,-3.4623,-3.4634,-3.4636,-3.4625,-3.4625,-3.4622,-3.4592,-3.4592,-3.4627,-3.4626,-3.4626,-3.4625,0,0,0,0,0,0,0,-3.4612,-3.461,-3.4589,-3.4605,-3.4608,-3.4618,-3.4618,-3.4599,-3.4615,-3.4624,-3.4627,-3.4626,-3.4627,-3.4623,-3.4622,-3.4592,-3.4627,-3.4626,-3.4625,-3.4625,-3.4533,-3.4531,0,0,0,0,0,0,-3.461,-3.461,-3.4589,-3.4589,-3.4614,-3.4616,-3.4617,-3.461,-3.4616,-3.4618,-3.4625,-3.4628,-3.4625,-3.4624,-3.4622,-3.4578,-3.4626,-3.4624,-3.4624,-3.4535,-3.4533,-3.4531,0,0,0,0,0,0,-3.461,-3.4607,-3.4589,-3.4601,-3.4599,-3.4614,-3.4605,-3.4609,-3.4605,-3.4617,-3.462,-3.4618,-3.4626,-3.4624,-3.46,-3.4578,-3.4624,-3.4622,-3.4536,-3.4534,-3.4532,-3.4487,0,0,0,0,0,0,-3.4611,-3.4607,-3.4592,-3.46,-3.4598,-3.4566,-3.4604,-3.4608,-3.4603,-3.4607,-3.4611,-3.4613,-3.4627,-3.4602,-3.4599,-3.4577,-3.4621,-3.4538,-3.4535,-3.4533,-3.4491,-3.4484,-3.4478,0,0,0,0,0,-3.4612,-3.4578,-3.4591,-3.4588,-3.4579,-3.4565,-3.4564,-3.4581,-3.4601,-3.4586,-3.4594,-3.4613,-3.4581,-3.4599,-3.4596,-3.4573,-3.454,-3.4536,-3.4533,-3.4494,-3.4485,-3.4478,0,0,0,0,0,0,-3.4565,-3.4579,-3.4594,-3.4561,-3.4562,-3.4572,-3.4553,-3.4571,-3.4565,-3.4569,-3.4589,-3.459,-3.4563,-3.4566,-3.4585,-3.4537,-3.4564,-3.456,-3.4536,-3.4528,-3.4521,-3.4521,-3.462,0,0,0,0,0,-3.4551,-3.4539,-3.4552,-3.4522,-3.4522,-3.4538,-3.4532,-3.4545,-3.4546,-3.4546,-3.4552,-3.4552,-3.4543,-3.4535,-3.4527,-3.4492,-3.4495,-3.4475,-3.4469,-3.4463,-3.4459,-3.4444,-3.4436,-3.4519,-3.4519,-3.4519,0,0,-3.4522,-3.4528,-3.4519,-3.4513,-3.4515,-3.4502,-3.4537,-3.4521,-3.4512,-3.4543,-3.4522,-3.4527,-3.4528,-3.4499,-3.4487,-3.4501,-3.4437,-3.4459,-3.4455,-3.4453,-3.444,-3.4432,-3.4425,-3.4517,-3.4517,-3.4518,0,0,-3.4462,-3.4465,-3.4442,-3.4445,-3.4448,-3.4459,-3.4454,-3.4462,-3.4467,-3.4446,-3.447,-3.446,-3.4442,-3.4443,-3.4441,-3.4386,-3.4405,-3.4383,-3.4349,-3.4333,-3.4327,-3.4321,-3.4303,-3.4297,-3.4379,-3.4379,-3.4379,0,-3.4425,-3.4407,-3.4428,-3.4412,-3.4409,-3.444,-3.4417,-3.4418,-3.4418,-3.4416,-3.4432,-3.4413,-3.4415,-3.4389,-3.4376,-3.4373,-3.4368,-3.4382,-3.4326,-3.4321,-3.4316,-3.4299,-3.4292,-3.4376,-3.4376,-3.4377,-3.4377,0,-3.4362,-3.4349,-3.433,-3.4332,-3.4328,-3.4308,-3.4327,-3.432,-3.4335,-3.4345,-3.4325,-3.433,-3.4324,-3.4319,-3.4332,-3.4295,-3.4304,-3.4323,-3.4351,-3.4305,-3.429,-3.4283,-3.4372,-3.4373,-3.4374,-3.4375,0,0,-3.427,-3.4287,-3.4279,-3.4282,-3.429,-3.428,-3.4264,-3.426,-3.4254,-3.4254,-3.4241,-3.4228,-3.4247,-3.4244,-3.4258,-3.4245,-3.4204,-3.4266,-3.4267,-3.4256,-3.4166,-3.4152,-3.4144,-3.4217,-3.4216,-3.4215,-3.4167,0,-3.4213,-3.4186,-3.4206,-3.4175,-3.4165,-3.4196,-3.4181,-3.4185,-3.4195,-3.4188,-3.4198,-3.4189,-3.4214,-3.4213,-3.4201,-3.4212,-3.4187,-3.4215,-3.4206,-3.4205,-3.4205,-3.4136,-3.4121,-3.4075,-3.4161,-3.416,-3.4159,0,-3.4143,-3.4143,-3.4111,-3.4125,-3.4121,-3.4108,-3.4108,-3.4101,-3.4107,-3.4115,-3.4115,-3.4134,-3.4119,-3.4147,-3.4128,-3.4147,-3.4145,-3.415,-3.4149,-3.4148,-3.4179,-3.4135,-3.406,-3.4054,-3.4149,-3.415,-3.4151,0,-3.4081,-3.4072,-3.4053,-3.4054,-3.4069,-3.406,-3.4065,-3.4073,-3.407,-3.4071,-3.407,-3.4067,-3.4066,-3.4065,-3.4083,-3.4102,-3.4063,-3.4092,-3.407,-3.4069,-3.406,-3.406,-3.3984,-3.4057,-3.4057,-3.4057,-3.4058,0,-3.4016,-3.3995,-3.4026,-3.4014,-3.3994,-3.4018,-3.3997,-3.4006,-3.4013,-3.4004,-3.403,-3.4021,-3.4046,-3.404,-3.4054,-3.4038,-3.4037,-3.4044,-3.4048,-3.4042,-3.4041,-3.404,-3.4044,-3.4056,-3.4056,-3.4056,-3.4057,0,-3.3942,-3.3961,-3.3943,-3.396,-3.3964,-3.3948,-3.3963,-3.3953,-3.3967,-3.3955,-3.3954,-3.3974,-3.3969,-3.3988,-3.3984,-3.3995,-3.3971,-3.398,-3.3969,-3.3972,-3.395,-3.3952,-3.3871,-3.3863,-3.394,-3.3939,-3.3939,0,-3.3899,-3.3885,-3.3902,-3.3898,-3.3903,-3.3897,-3.3896,-3.3921,-3.3918,-3.3926,-3.3916,-3.3914,-3.3913,-3.3903,-3.3918,-3.3917,-3.3926,-3.3898,-3.3926,-3.3921,-3.3928,-3.3928,-3.3928,-3.3892,-3.3891,-3.389,-3.389,0,-3.3821,-3.3833,-3.3831,-3.3833,-3.3831,-3.3834,-3.3838,-3.3833,-3.386,-3.3856,-3.3853,-3.3852,-3.3852,-3.3849,-3.3852,-3.3858,-3.3879,-3.3881,-3.3876,-3.387,-3.3865,-3.3869,-3.3954,-3.3883,-3.3883,-3.3884,-3.3884,-3.3885,-3.3762,-3.3753,-3.3764,-3.3762,-3.3768,-3.3772,-3.3765,-3.3779,-3.3776,-3.3779,-3.3793,-3.3787,-3.3797,-3.3803,-3.3808,-3.3804,-3.3817,-3.3809,-3.3808,-3.3806,-3.3803,-3.3866,-3.3804,-3.3804,-3.3805,-3.3805,-3.3805,0,-3.3687,-3.3697,-3.3695,-3.3702,-3.37,-3.3722,-3.3729,-3.3726,-3.3721,-3.3729,-3.3729,-3.3726,-3.3725,-3.3741,-3.3742,-3.3736,-3.3746,-3.3736,-3.3736,-3.3738,-3.379,-3.3795,-3.3728,-3.3728,-3.3728,-3.3728,-3.3728,-3.3728,-3.3648,-3.3634,-3.3647,-3.3637,-3.3647,-3.3642,-3.3645,-3.3649,-3.3656,-3.3652,-3.3652,-3.3664,-3.3675,-3.3678,-3.3679,-3.3684,-3.3684,-3.3671,-3.3679,-3.3726,-3.3734,-3.3741,-3.3746,-3.367,-3.367,-3.3627,-3.3627,-3.3627]}]]